Карточка аэропорта UWLL

Внимание!
Информация на этой странице в стадии наполнения.
Если вы не увидели какой-то информации, или заметили неточность - пожалуйста сообщите нам!
Спасибо!
Команда RU-STAFF
Название аэропортаБаратаевка
Название аэропорта (англ.)Barataevka
Превышение426 ft. (129.8 m.)
Координаты54°16.236', 48°13.416'
Высота перехода4000 ft
Эшелон переходаQNH>=1013hPa:FL50; QNH<1013hPa:FL60; QNH<977hPa:FL70
Коды ответчика1000
Зона ОрВДСамара РПИ (UWWW)
Данные METARUWLL 252200Z 20004MPS CAVOK M14/M20 Q1042 R20/810355 NOSIG RMK QFE771/1028
Проноз погоды (TAF)UWLL 251953Z 2521/2621 19006G13MPS 9999 BKN016 TXM07/2612Z TNM18/2603Z
NOTAMshow/hide NOTAM
AWOS   TABLE

Информация о ВПП

ВПП Длина ВПП (м.) Покрытие Курс ВПП Частота ILS
023100Бетон19110.3
203100Бетон199111.3

Диспетчерские позиции

Позывной Наименование органа УВД Частота
UWLL_GNDУльяновск-Руление121.8
UWLL_R_APPУльяновск-Круг120.8
UWLL_TWRУльяновск-Старт/Посадка120.4
UWLL_APPУльяновск-Подход127.3



Спутниковое изображение